This demonstration page uses our WeatherBlox Daily Observations layout. Learn more.

Left ArrowRight Arrow

39.01783, -85.05884

Hourly Observations for October 19, 2019

Temp ( °F °C ) Dew Point ( °F °C ) Humidity (%) Winds ( mph kmh ) Pressure ( in mb ) Visibility ( mi km ) Precip ( " mm )
12:52 am 00:52 Mostly Clear 49 9.4 37 2.8 64 64 ESE 5 7 29.97 1015 10 16 0.00 0.00
1:52 am 01:52 Clear 48 8.9 37 2.8 66 66 ESE 5 7 29.96 1015 10 16 0.00 0.00
2:52 am 02:52 Clear 47 8.3 37 2.8 69 69 ESE 8 13 29.96 1015 10 16 0.00 0.00
3:52 am 03:52 Clear 46 7.8 37 2.8 71 71 SE 9 15 29.96 1015 10 16 0.00 0.00
4:52 am 04:52 Clear 45 7.2 36 2.2 71 71 E 3 6 29.96 1014 10 16 0.00 0.00
5:52 am 05:52 Clear 45 7.2 36 2.2 71 71 Calm 29.96 1015 10 16 0.00 0.00
6:52 am 06:52 Mostly Clear 45 7.2 36 2.2 71 71 SE 3 6 29.96 1014 10 16 0.00 0.00
7:52 am 07:52 Mostly Clear 44 6.7 36 2.2 73 73 SE 6 9 29.96 1014 10 16 0.00 0.00
8:52 am 08:52 Partly Cloudy 46 7.8 38 3.3 73 73 SE 8 13 29.96 1015 10 16 0.00 0.00
9:52 am 09:52 Mostly Cloudy 52 11.1 39 3.9 61 61 SE 9 15 29.96 1015 10 16 0.00 0.00
10:52 am 10:52 Mostly Cloudy 56 13.3 40 4.4 55 55 SSE 8 13 29.95 1014 10 16 0.00 0.00
11:52 am 11:52 Mostly Cloudy 61 16.1 41 5 48 48 SSE 7 11 29.94 1014 10 16 0.00 0.00
12:52 pm 12:52 Mostly Cloudy 63 17.2 41 5 45 45 SE 7 11 29.91 1013 10 16 0.00 0.00
1:52 pm 13:52 Partly Cloudy 68 20 42 5.6 39 39 SSW 8 13 29.88 1012 10 16 0.00 0.00
2:52 pm 14:52 Mostly Cloudy 69 20.6 40 4.4 35 35 SW 8 13 29.85 1011 10 16 0.00 0.00
3:52 pm 15:52 Partly Cloudy 70 21.1 41 5 35 35 SSW 5 7 29.83 1010 10 16 0.00 0.00
4:52 pm 16:52 Partly Cloudy 71 21.7 41 5 34 34 S 9 15 29.81 1009 10 16 0.00 0.00
5:52 pm 17:52 Partly Cloudy 68 20 41 5 38 38 S 9 15 29.80 1009 10 16 0.00 0.00
6:52 pm 18:52 Mostly Cloudy 65 18.3 42 5.6 43 43 S 5 7 29.80 1009 10 16 0.00 0.00
7:52 pm 19:52 Cloudy 62 16.7 43 6.1 50 50 SSE 6 9 29.81 1010 10 16 0.00 0.00
8:52 pm 20:52 Mostly Cloudy 61 16.1 44 6.7 54 54 SSE 9 15 29.80 1009 10 16 0.00 0.00
9:52 pm 21:52 Mostly Cloudy 60 15.6 45 7.2 58 58 SSE 7 11 29.81 1009 10 16 0.00 0.00
10:52 pm 22:52 Cloudy 61 16.1 45 7.2 56 56 SSE 9 15 29.80 1009 10 16 0.00 0.00
11:52 pm 23:52 Cloudy 60 15.6 45 7.2 58 58 S 9 15 29.80 1009 10 16 0.00 0.00

Powered by AerisWeather